This demonstration page uses our WeatherBlox Daily Observations layout. Learn more.

Left ArrowRight Arrow

39.92423, -83.80882

Hourly Observations for March 29, 2021

Temp ( °F °C ) Dew Point ( °F °C ) Humidity (%) Winds ( mph kmh ) Pressure ( in mb ) Visibility ( mi km ) Precip ( " mm )
12:56 am 00:56 Clear 33 0.6 28 -2.2 82 82 W 7 11 30.17 1022 10 16 N/A
1:56 am 01:56 Clear 32 undefined 28 -2.2 85 85 W 8 13 30.19 1022 10 16 N/A
2:56 am 02:56 Clear 31 -0.6 28 -2.2 89 89 WSW 7 11 30.20 1023 10 16 N/A
3:56 am 03:56 Clear 30 -1.1 27 -2.8 88 88 W 7 11 30.21 1023 10 16 N/A
4:56 am 04:56 Clear 29 -1.7 27 -2.8 92 92 W 5 7 30.23 1024 10 16 N/A
5:56 am 05:56 Clear 29 -1.7 28 -2.2 96 96 N N/A 30.24 1024 10 16 N/A
6:56 am 06:56 Clear 27 -2.8 27 -2.8 100 100 N N/A 30.25 1024 10 16 N/A
7:56 am 07:56 Sunny 27 -2.8 27 -2.8 100 100 N N/A 30.28 1025 10 16 N/A
8:56 am 08:56 Sunny 34 1.1 29 -1.7 82 82 N N/A 30.29 1026 10 16 N/A
9:56 am 09:56 Sunny 38 3.3 28 -2.2 68 68 N N/A 30.31 1026 10 16 N/A
10:56 am 10:56 Sunny 41 5 27 -2.8 57 57 WSW 6 9 30.31 1026 10 16 N/A
11:56 am 11:56 Sunny 44 6.7 28 -2.2 53 53 N N/A 30.31 1026 10 16 N/A
12:56 pm 12:56 Sunny 46 7.8 29 -1.7 51 51 N N/A 30.29 1026 10 16 N/A
1:56 pm 13:56 Sunny 49 9.4 30 -1.1 48 48 VRB 5 7 30.26 1025 10 16 N/A
2:56 pm 14:56 Sunny 51 10.6 30 -1.1 44 44 WSW 8 13 30.24 1024 10 16 N/A
3:56 pm 15:56 Sunny 52 11.1 31 -0.6 45 45 VRB 7 11 30.22 1023 10 16 N/A
4:56 pm 16:56 Sunny 53 11.7 30 -1.1 41 41 S 8 13 30.20 1023 10 16 N/A
5:56 pm 17:56 Sunny 54 12.2 29 -1.7 38 38 SSE 8 13 30.18 1022 10 16 N/A
6:14 pm 18:14 Partly Cloudy 54 12 30 -1 41 41 S 8 13 30.16 1021 10 16 N/A
6:56 pm 18:56 Sunny 53 11.7 29 -1.7 40 40 S 10 17 30.18 1022 10 16 N/A
7:56 pm 19:56 Sunny 49 9.4 32 undefined 52 52 SSE 7 11 30.17 1022 10 16 N/A
8:56 pm 20:56 Clear 47 8.3 32 undefined 56 56 SSE 8 13 30.16 1021 10 16 N/A
9:56 pm 21:56 Clear 47 8.3 31 -0.6 54 54 S 10 17 30.15 1021 10 16 N/A
10:56 pm 22:56 Clear 46 7.8 29 -1.7 51 51 S 8 13 30.14 1021 10 16 N/A
11:56 pm 23:56 Clear 43 6.1 30 -1.1 60 60 SSE 7 11 30.14 1021 10 16 N/A

Powered by AerisWeather